This is the latest recevied weather packets stored in our database for station/object KU9TRY. If no packets are shown the sender has not sent any weather packets the latest 10 day(s).
| Time | Temp. | Humidity | Pressure | Rain* | Wind** | Luminosity | Snow |
|---|---|---|---|---|---|---|---|
| 1778386711 | 12.22° C | 96% | 1013.8 hPa | 0 mm | - | 0 W/m² | - |
| 1778386409 | 12.22° C | 96% | 1014.1 hPa | 0 mm | - | 0 W/m² | - |
| 1778386106 | 12.22° C | 96% | 1013.9 hPa | 0 mm | - | 0 W/m² | - |
| 1778385802 | 12.22° C | 96% | 1014 hPa | 0 mm | - | 0 W/m² | - |
| 1778385498 | 12.78° C | 96% | 1013.9 hPa | 0 mm | - | 0 W/m² | - |
| 1778385194 | 12.78° C | 95% | 1014 hPa | 0 mm | - | 0 W/m² | - |
| 1778384890 | 12.78° C | 95% | 1013.8 hPa | 0 mm | - | 0 W/m² | - |
| 1778384588 | 12.78° C | 95% | 1014 hPa | 0 mm | - | 0 W/m² | - |
| 1778384283 | 12.78° C | 95% | 1013.9 hPa | 0 mm | - | 0 W/m² | - |
| 1778383981 | 13.33° C | 95% | 1013.9 hPa | 0 mm | - | 0 W/m² | - |
| 1778383677 | 13.33° C | 95% | 1013.7 hPa | 0 mm | - | 0 W/m² | - |
| 1778383373 | 12.78° C | 95% | 1014 hPa | 0 mm | - | 0 W/m² | - |
| 1778383069 | 13.33° C | 95% | 1013.8 hPa | 0 mm | - | 0 W/m² | - |
| 1778382765 | 13.33° C | 94% | 1013.7 hPa | 0 mm | - | 0 W/m² | - |
| 1778382459 | 12.78° C | 93% | 1013.7 hPa | 0 mm | - | 0 W/m² | - |
| 1778382157 | 13.33° C | 93% | 1013.7 hPa | 0 mm | - | 0 W/m² | - |
| 1778381854 | 13.33° C | 93% | 1013.4 hPa | 0 mm | - | 0 W/m² | - |
| 1778381551 | 13.33° C | 93% | 1013.3 hPa | 0 mm | - | 0 W/m² | - |
| 1778381248 | 13.89° C | 93% | 1013.4 hPa | 0 mm | - | 0 W/m² | - |
| 1778380945 | 13.89° C | 93% | 1013.2 hPa | 0 mm | - | 0 W/m² | - |
| 1778380640 | 13.89° C | 92% | 1013.4 hPa | 0 mm | - | 0 W/m² | - |
| 1778380337 | 13.89° C | 90% | 1013.4 hPa | 0 mm | - | 0 W/m² | - |
| 1778380034 | 14.44° C | 91% | 1013.3 hPa | 0 mm | - | 0 W/m² | - |
| 1778379729 | 14.44° C | 90% | 1013.1 hPa | 0 mm | - | 0 W/m² | - |
| 1778379429 | 14.44° C | 89% | 1013.1 hPa | 0 mm | - | 0 W/m² | - |
* Rain latest hour (hover to see other rain measurements)
** Current wind speed in m/s (hover to see current wind gust speed)